Voltar ao catálogo

STARLINK-32408

AtivoComunicaçõesVLEO
NORAD 62054·PAYLOAD·🇺🇸 United States

Lançado Nov 21, 2024 de Cape Canaveral Space Force Station

Loading…

Próximas Passagens (próximas 24 horas)

TLE

AtualizadoSource: CelesTrak SupGP

Época: Sep 14, 2026, 22:27 UTC

1 62054C 24216Y   26257.93590278  .00028150  00000+0  10193-2 0  2575
2 62054  43.0001 267.5757 0001567 268.6972 255.7363 15.27574621    17

Acompanhe STARLINK-32408 em tempo real com AllMySat

Download on the App Store